Regional Weather Roundup
Issued by NWS

Home | Current Version | Previous Version | Text Only | Print | Product List | Glossary On
Versions: 1 2 3 4 5 6 7 8 9 10 11 12 13 14 15 16 17 18 19 20 21 22 23 24 25 26 27 28 29 30 31 32 33 34 35 36 37 38 39 40 41 42 43 44 45 46 47 48 49 50
421
ASUS43 KDMX 291501
RWRIA

WEATHER ROUNDUP FOR IOWA
NATIONAL WEATHER SERVICE DES MOINES IA
1000 AM CDT SAT APR 29 2017

NOTE: "FAIR" INDICATES FEW OR NO CLOUDS BELOW 12,000 FEET WITH NO
SIGNIFICANT WEATHER AND/OR OBSTRUCTIONS TO VISIBILITY.

* - THESE STATIONS ARE NOT NWS STATIONS...THUS NOT UNDER NWS
QUALITY CONTROL.  THEY ALSO DO NOT REPORT WEATHER SUCH
AS PRECIPITATION OR FOG.

IAZ001>003-012>014-020>022-031>034-043>046-291600-
   NORTHWEST IOWA

CITY           SKY/WX    TMP DP  RH WIND       PRES   REMARKS
CARROLL *      CLOUDY    45  37  76 NE21G28   30.10F
CHEROKEE *     CLOUDY    42  33  70 NE13      30.19F
DENISON *      PTSUNNY   43  34  70 NE21      30.10F
LE MARS *      CLOUDY    45  32  61 NE12G18   30.21F
ORANGE CITY *  PTSUNNY   43  32  65 NE10      30.20F
SHELDON *      PTSUNNY   43  32  65 NE18      30.21F
SIOUX CITY     CLOUDY    45  31  58 NE16G23   30.18F
SPENCER        CLOUDY    42  33  70 NE17      30.23F
STORM LAKE *     N/A     43  32  65 NE23      30.16F
$$

IAZ055>058-069>071-079>083-090>094-291600-
   SOUTHWEST IOWA

CITY           SKY/WX    TMP DP  RH WIND       PRES   REMARKS
ATLANTIC *     CLOUDY    43  37  81 NE15G23   30.05F
AUDUBON *      CLOUDY    43  37  81 NE20      30.08F
CLARINDA *     CLOUDY    45  41  87 NE15G25   30.03S
COUNCIL BLFS * CLOUDY    43  37  81 NE16G23   30.06S
CRESTON *      LGT RAIN  43  39  87 NE22G31   30.02F
HARLAN  *      PTSUNNY   43  37  81 NE18G28   30.09F
LAMONI         LGT RAIN  44  42  93 NE18G31   29.98R FOG
RED OAK *      RAIN      43  39  87 NE17G24   30.02F
SHENANDOAH *   LGT RAIN  43  39  87 NE16G23   30.01F
$$

IAZ047>049-059>061-072>074-084-291600-
   CENTRAL IOWA

CITY           SKY/WX    TMP DP  RH WIND       PRES   REMARKS
AMES           CLOUDY    44  36  73 NE16G24   30.11S
ANKENY *       CLOUDY    45  37  76 NE12G21   30.11R
BOONE *        CLOUDY    43  36  75 NE17G26   30.09F
CHARITON *     LGT RAIN  45  41  87 NE21G30   30.03R
DES MOINES     CLOUDY    46  37  71 NE16      30.08S
GRINNELL*      CLOUDY    45  38  75 NE18G29   30.06F
KNOXVILLE *    CLOUDY    45  37  76 NE17G24   30.04R
MARSHALLTOWN   CLOUDY    44  36  73 NE25G31   30.09F
NEWTON *       CLOUDY    45  37  76 NE22      30.05F
PELLA *        CLOUDY    45  39  78 NE10G18   30.06F
PERRY *          N/A     44  35  72 NE16      30.10F
$$

IAZ004>006-015-016-023>025-035-036-291600-
   NORTH CENTRAL IOWA

CITY           SKY/WX    TMP DP  RH WIND       PRES   REMARKS
ALGONA *       PTSUNNY   43  36  75 NE15      30.21F
CLARION *      CLOUDY    43  37  81 NE21      30.16F
ESTHERVILLE    CLOUDY    40  33  76 NE17      30.23F WCI  31
FORT DODGE *   CLOUDY    43  32  65 NE13G20   30.16F
MASON CITY     CLOUDY    43  33  68 NE17      30.22S
FOREST CITY *    N/A     43  30  61 NE10G16   30.22S
WEBSTER CITY * CLOUDY    43  34  70 NE18      30.11F
IOWA FALLS *   PTSUNNY   43  35  75 NE14G23   30.14F
$$

IAZ007>011-017>019-026>030-037>042-050>054-066-291600-
   NORTHEAST IOWA

CITY           SKY/WX    TMP DP  RH WIND       PRES   REMARKS
CEDAR RAPIDS   CLOUDY    46  36  68 NE18G33   30.07S
CHARLES CITY * CLOUDY    41  34  75 NE13G21   30.20F
CLINTON *      PTSUNNY   46  36  68 E25G32    30.08F
DECORAH *      PTSUNNY   41  30  65 NE12G17   30.20F
DUBUQUE        MOSUNNY   45  34  65 NE22G35   30.12F
MONTICELLO *   PTSUNNY   46  36  66 NE16G25   30.11F
OELWEIN *      PTSUNNY   43  36  75 NE21      30.15F
WATERLOO       CLOUDY    44  33  65 NE16      30.15F
$$

IAZ064-065-067-068-078-291600-
   EAST CENTRAL IOWA

CITY           SKY/WX    TMP DP  RH WIND       PRES   REMARKS
DAVENPORT      CLOUDY    46  36  68 NE24G32   30.04F
IOWA CITY      CLOUDY    48  38  68 NE22G31   30.08S
MT. PLEASANT * DRIZZLE   46  45  93 NE17G23   30.06R
MUSCATINE *    CLOUDY    46  36  66 NE17G32   30.08R
QUAD CITIES    CLOUDY    47  36  65 NE16G30   30.04F
$$

IAZ062-063-075>077-085>089-095>099-291600-
   SOUTHEAST IOWA

CITY           SKY/WX    TMP DP  RH WIND       PRES   REMARKS
BURLINGTON     CLOUDY    47  43  86 NE20G28   30.03R
FAIRFIELD *    CLOUDY    46  43  87 NE22      30.01S
FORT MADISON * LGT RAIN  46  46 100 NE14G21   30.04R
KEOKUK *       CLOUDY    48  46  93 E18       30.01S
OSKALOOSA *    RAIN      45  41  85 NE24      30.04S
CENTERVILLE *  RAIN      45  45 100 NE10G23   30.05R
OTTUMWA        LGT RAIN  46  43  89 NE23G29   30.02S
WASHINGTON *   LGT RAIN  46  41  81 NE20G32   30.09R
$$

ABBREVIATIONS USED IN REMARKS
   TC - TEMPERATURES IN CELSIUS
  WCI - WIND CHILL INDEX
   HX - HEAT INDEX
  VSB - VISIBILITY
$$





USA.gov is the U.S. government's official web portal to all federal, state and local government web resources and services.